I-INSPIRE II (42731 NORAD) Tracking and Keplerian Element Data

This shows tracking and keplerian element data for the satellite.

Feedback or suggestion? Click here.




ElementValue
Catalog42731
NameI-INSPIRE II
Epoch Orbit8425
Epoch Day318.3321396
Epoch Year2018
RAAN289.5224
Inclination51.6273
Eccentricity0.000672
Argument of Perigee95.9809
Mean Anonmoly264.197
Mean Motion16.07523772
Decay Rate0.00531473
L11 42731U 98067ML 18318.33213960 .00531473 14989-3 64365-3 0 9999
L22 42731 51.6273 289.5224 0006720 95.9809 264.1970 16.07523772 84258

Live tracking and technical data element details for I-INSPIRE II (NORAD 42731). I-INSPIRE II can be tracked NOW for your location showing map with azimuth and elevation plus other details from your city location.

Track the satellite on the map from your city or location and see movement details for azimuth, elevation, latitude, longitude, range, height, and movement on the map or in text.







IsCatalogInMostPopularTable: catalog: 42731, numindb: 148
Update: records affected: 1



GetName: 42731 I-INSPIRE II

Hit Count: updated at: Fri, 16 Nov 2018 04:59:57 GMT